Time,TemperatureF,DewpointF,PressureIn,WindDirection,WindDirectionDegrees,WindSpeedMPH,WindSpeedGustMPH,Humidity,HourlyPrecipIn,Conditions,Clouds,dailyrainin,SoftwareType,DateUTC
2013-11-07 00:44:00,52.0,-99.9,30.09,SSE,149,-999.0,-999.0,-999,0.00,,,-99.99,,2013-11-07 05:44:00,
2013-11-07 01:42:00,51.0,-99.9,30.07,SW,226,-999.0,3.0,-999,0.00,,,-99.99,,2013-11-07 06:42:00,
2013-11-07 01:52:00,51.0,-99.9,30.07,SW,226,-999.0,3.0,-999,0.00,,,-99.99,,2013-11-07 06:52:00,
2013-11-07 02:42:00,54.0,-99.9,30.04,SSW,199,-999.0,-999.0,-999,0.00,,,-99.99,,2013-11-07 07:42:00,
2013-11-07 02:52:00,54.0,-99.9,30.04,SSW,199,-999.0,-999.0,-999,0.00,,,-99.99,,2013-11-07 07:52:00,
2013-11-07 02:53:00,53.0,-99.9,30.01,SSW,199,-999.0,-999.0,-999,0.00,,,-99.99,,2013-11-07 07:53:00,
2013-11-07 03:42:00,53.0,-99.9,30.01,SSW,199,-999.0,-999.0,-999,0.00,,,-99.99,,2013-11-07 08:42:00,
2013-11-07 03:53:00,53.0,-99.9,29.98,WSW,252,-999.0,-999.0,-999,0.00,,,-99.99,,2013-11-07 08:53:00,
2013-11-07 04:43:00,53.0,-99.9,29.98,WSW,252,-999.0,-999.0,-999,0.00,,,-99.99,,2013-11-07 09:43:00,
2013-11-07 04:53:00,53.0,-99.9,29.95,WSW,252,-999.0,-999.0,-999,0.00,,,-99.99,,2013-11-07 09:53:00,
2013-11-07 05:42:00,53.0,-99.9,29.95,WSW,252,-999.0,-999.0,-999,0.00,,,-99.99,,2013-11-07 10:42:00,
2013-11-07 06:43:00,55.0,-99.9,29.91,WSW,240,-999.0,-999.0,-999,0.00,,,-99.99,,2013-11-07 11:43:00,
2013-11-07 06:52:00,55.0,-99.9,29.91,WSW,240,-999.0,-999.0,-999,0.00,,,-99.99,,2013-11-07 11:52:00,
2013-11-07 07:42:00,59.0,-99.9,29.87,South,172,-999.0,9.0,-999,0.00,,,-99.99,,2013-11-07 12:42:00,
2013-11-07 07:52:00,59.0,-99.9,29.87,South,172,-999.0,9.0,-999,0.00,,,-99.99,,2013-11-07 12:52:00,
2013-11-07 08:42:00,61.0,-99.9,29.86,WSW,240,-999.0,5.0,-999,0.00,,,-99.99,,2013-11-07 13:42:00,
2013-11-07 08:52:00,61.0,-99.9,29.86,WSW,240,-999.0,5.0,-999,0.00,,,-99.99,,2013-11-07 13:52:00,
2013-11-07 09:42:00,61.0,-99.9,29.86,WSW,256,-999.0,5.0,-999,0.00,,,-99.99,,2013-11-07 14:42:00,
2013-11-07 09:52:00,61.0,-99.9,29.86,WSW,256,-999.0,5.0,-999,0.00,,,-99.99,,2013-11-07 14:52:00,
2013-11-07 09:53:00,62.0,-99.9,29.85,SE,137,-999.0,10.0,-999,0.00,,,-99.99,,2013-11-07 14:53:00,
2013-11-07 10:43:00,62.0,-99.9,29.85,SE,137,-999.0,10.0,-999,0.00,,,-99.99,,2013-11-07 15:43:00,
2013-11-07 11:42:00,61.0,-99.9,29.85,SW,228,2.0,4.0,-999,0.02,,,-99.99,,2013-11-07 16:42:00,
2013-11-07 11:52:00,61.0,-99.9,29.85,SW,228,2.0,4.0,-999,0.02,,,-99.99,,2013-11-07 16:52:00,
2013-11-07 12:43:00,58.0,-99.9,29.82,South,186,-999.0,5.0,-999,0.01,,,-99.99,,2013-11-07 17:43:00,
2013-11-07 13:42:00,58.0,-99.9,29.78,WSW,253,-999.0,-999.0,-999,0.01,,,-99.99,,2013-11-07 18:42:00,
2013-11-07 13:52:00,58.0,-99.9,29.78,WSW,253,-999.0,-999.0,-999,0.01,,,-99.99,,2013-11-07 18:52:00,
2013-11-07 14:42:00,59.0,-99.9,29.76,WSW,253,-999.0,-999.0,-999,0.00,,,-99.99,,2013-11-07 19:42:00,
2013-11-07 14:52:00,59.0,-99.9,29.76,WSW,253,-999.0,-999.0,-999,0.00,,,-99.99,,2013-11-07 19:52:00,
2013-11-07 15:42:00,54.0,-99.9,29.79,WNW,302,6.0,11.0,-999,0.08,,,-99.99,,2013-11-07 20:42:00,
2013-11-07 15:52:00,54.0,-99.9,29.79,WNW,302,6.0,11.0,-999,0.08,,,-99.99,,2013-11-07 20:52:00,
2013-11-07 15:53:00,52.0,-99.9,29.80,NW,305,3.0,11.0,-999,0.03,,,-99.99,,2013-11-07 20:53:00,
2013-11-07 16:43:00,52.0,-99.9,29.80,NW,305,3.0,11.0,-999,0.03,,,-99.99,,2013-11-07 21:43:00,
2013-11-07 16:53:00,49.0,-99.9,29.83,North,-999,7.0,19.0,-999,0.00,,,-99.99,,2013-11-07 21:53:00,
2013-11-07 17:43:00,49.0,-99.9,29.83,North,-999,7.0,19.0,-999,0.00,,,-99.99,,2013-11-07 22:43:00,
2013-11-07 17:53:00,48.0,-99.9,29.85,WNW,298,2.0,16.0,-999,0.00,,,-99.99,,2013-11-07 22:53:00,
2013-11-07 18:43:00,48.0,-99.9,29.85,WNW,298,2.0,16.0,-999,0.00,,,-99.99,,2013-11-07 23:43:00,
2013-11-07 19:42:00,47.0,-99.9,29.88,NW,323,6.0,13.0,-999,0.00,,,-99.99,,2013-11-08 00:42:00,
2013-11-07 19:52:00,47.0,-99.9,29.88,NW,323,6.0,13.0,-999,0.00,,,-99.99,,2013-11-08 00:52:00,
2013-11-07 20:42:00,46.0,-99.9,29.91,WNW,285,5.0,10.0,-999,0.00,,,-99.99,,2013-11-08 01:42:00,
2013-11-07 20:52:00,46.0,-99.9,29.91,WNW,285,5.0,10.0,-999,0.00,,,-99.99,,2013-11-08 01:52:00,
2013-11-07 21:42:00,46.0,-99.9,29.91,North,-999,-999.0,16.0,-999,0.00,,,-99.99,,2013-11-08 02:42:00,
2013-11-07 21:52:00,46.0,-99.9,29.91,North,-999,-999.0,16.0,-999,0.00,,,-99.99,,2013-11-08 02:52:00,
2013-11-07 21:53:00,43.0,-99.9,29.93,NNW,348,-999.0,-999.0,-999,0.00,,,-99.99,,2013-11-08 02:53:00,
2013-11-07 22:44:00,43.0,-99.9,29.93,NNW,348,-999.0,-999.0,-999,0.00,,,-99.99,,2013-11-08 03:44:00,
2013-11-07 22:53:00,40.0,-99.9,29.93,NNW,348,-999.0,-999.0,-999,0.00,,,-99.99,,2013-11-08 03:53:00,
2013-11-07 23:44:00,40.0,-99.9,29.93,NNW,348,-999.0,-999.0,-999,0.00,,,-99.99,,2013-11-08 04:44:00,
2013-11-07 23:53:00,39.0,-99.9,29.93,WSW,248,-999.0,-999.0,-999,0.00,,,-99.99,,2013-11-08 04:53:00,